Tewantin Observation History
Time Wind Speed Temp Pressure Rel. Hum Rain
25/12:30pm NE 6-9 kts 27.8°c 1011.4 hPa 70% 0.0mm
25/12:00pm ENE 6-9 kts 26.8°c 1011.6 hPa 63% 0.0mm
25/11:30am ENE 7-10 kts 27.6°c 1011.9 hPa 72% 0.0mm
25/11:00am NE 6-9 kts 27.5°c 1012.1 hPa 68% 0.0mm
25/10:30am NE 6-10 kts 26.5°c 1012.3 hPa 71% 0.0mm
25/10:00am E 4-9 kts 25.9°c 1012.4 hPa 76% 0.0mm
25/09:30am SSW 3-5 kts 25.0°c 1012.6 hPa 80% 0.0mm
25/09:00am S 4-6 kts 24.9°c 1012.6 hPa 82% 12.0mm
25/08:30am SW 2-4 kts 24.1°c 1012.7 hPa 84% 12.0mm
25/08:00am SW 3-5 kts 23.5°c 1012.6 hPa 90% 12.0mm
25/07:30am SSW 3-5 kts 22.7°c 1012.4 hPa 91% 12.0mm
25/07:00am SSW 4-7 kts 22.4°c 1012.2 hPa 91% 12.0mm
25/06:30am S 5-8 kts 21.8°c 1012.4 hPa 93% 12.0mm
25/06:00am SW 3-5 kts 21.5°c 1012.3 hPa 94% 12.0mm
25/05:30am SSW 4-6 kts 21.5°c 1012.2 hPa 94% 11.8mm
25/05:00am SW 3-5 kts 21.5°c 1012.0 hPa 94% 11.8mm
25/04:30am CALM 0 kts 21.5°c 1011.6 hPa 94% 11.8mm
25/04:00am SSW 4-5 kts 21.4°c 1011.3 hPa 93% 11.8mm
25/03:30am SW 3-5 kts 21.4°c 1011.2 hPa 94% 11.8mm
25/03:00am SSW 4-7 kts 21.6°c 1011.3 hPa 94% 11.8mm
25/02:30am S 4-5 kts 21.8°c 1011.5 hPa 93% 10.8mm
25/02:00am ESE 4-7 kts 21.7°c 1011.3 hPa 93% 9.6mm
25/01:30am SSW 3-5 kts 21.8°c 1011.8 hPa 91% 9.6mm
25/01:00am WSW 2-4 kts 22.0°c 1012.2 hPa 91% 9.6mm
25/12:30am S 3-7 kts 22.2°c 1012.7 hPa 91% 9.4mm
25/12:00am SW 2-4 kts 22.3°c 1013.1 hPa 91% 9.4mm
Time Wind Speed Temp Pressure Rel. Hum Rain
24/11:30pm SW 3-5 kts 22.6°c 1013.3 hPa 91% 9.4mm
24/11:00pm W 1-4 kts 22.6°c 1013.4 hPa 91% 9.4mm
24/10:30pm SW 3-4 kts 22.7°c 1013.6 hPa 92% 9.4mm
24/10:00pm CALM 0 kts 23.0°c 1013.8 hPa 90% 9.4mm
24/09:30pm E 3-5 kts 22.9°c 1014.0 hPa 90% 9.4mm
24/09:00pm ESE 5-8 kts 22.8°c 1013.8 hPa 91% 9.4mm
24/08:30pm ESE 3-6 kts 22.3°c 1013.8 hPa 93% 9.4mm
24/08:00pm SSE 3-8 kts 21.9°c 1013.6 hPa 94% 9.4mm
24/07:30pm CALM 0 kts 21.5°c 1013.5 hPa 93% 9.2mm
24/07:00pm NW 2-6 kts 21.3°c 1013.5 hPa 94% 9.2mm
24/06:30pm NNE 3-6 kts 21.9°c 1013.3 hPa 93% 3.4mm
24/06:00pm NE 5-8 kts 22.2°c 1013.0 hPa 92% 3.2mm
24/05:30pm E 4-6 kts 21.9°c 1012.7 hPa 90% 2.8mm
24/05:00pm S 5-8 kts 23.5°c 1012.6 hPa 87% 0.8mm
24/04:30pm SSE 5-7 kts 23.2°c 1012.6 hPa 89% 0.8mm
24/04:00pm SSE 3-5 kts 22.6°c 1012.8 hPa 89% 0.8mm
24/03:30pm ESE 6-9 kts 22.2°c 1013.0 hPa 91% 0.6mm
24/03:00pm ESE 10-14 kts 23.2°c 1012.9 hPa 90% 0.4mm
24/02:30pm ESE 10-15 kts 22.9°c 1012.9 hPa 87% 0.4mm
24/02:00pm ESE 8-13 kts 25.0°c 1013.0 hPa 74% 0.0mm
24/01:30pm ESE 7-9 kts 24.7°c 1013.1 hPa 81% 0.0mm
24/01:00pm ESE 9-14 kts 26.2°c 1013.3 hPa 67% 0.0mm
24/12:30pm ESE 7-11 kts 26.4°c 1013.6 hPa 61% 0.0mm
24/12:00pm ESE 8-12 kts 26.5°c 1014.0 hPa 58% 0.0mm
24/11:30am ESE 6-9 kts 27.2°c 1014.2 hPa 55% 0.0mm
24/11:00am E 5-10 kts 27.2°c 1014.6 hPa 56% 0.0mm
24/10:30am ESE 7-12 kts 27.0°c 1014.9 hPa 46% 0.0mm
24/10:00am ESE 7-11 kts 27.0°c 1015.1 hPa 57% 0.0mm
24/09:30am ESE 7-13 kts 26.7°c 1015.1 hPa 58% 0.0mm
24/09:00am ESE 7-11 kts 25.9°c 1015.0 hPa 63% 0.0mm
24/08:30am ESE 8-12 kts 25.5°c 1014.9 hPa 60% 0.0mm
24/08:00am SSE 4-6 kts 24.8°c 1014.9 hPa 71% 0.0mm
24/07:30am SSW 4-6 kts 24.0°c 1014.7 hPa 74% 0.0mm
24/07:00am SSW 3-5 kts 23.8°c 1014.6 hPa 74% 0.0mm
24/06:30am SW 4-6 kts 23.4°c 1014.3 hPa 75% 0.0mm
24/06:00am SSW 1-4 kts 22.2°c 1013.9 hPa 81% 0.0mm
24/05:30am SSW 4-5 kts 22.0°c 1013.4 hPa 82% 0.0mm
24/05:00am SW 4-5 kts 21.9°c 1013.3 hPa 82% 0.0mm
24/04:30am SSW 2-5 kts 21.8°c 1013.3 hPa 81% 0.0mm
24/04:00am SSW 3-5 kts 22.0°c 1013.1 hPa 81% 0.0mm
24/03:30am SSW 3-5 kts 22.2°c 1013.1 hPa 81% 0.0mm
24/03:00am S 4-5 kts 22.6°c 1013.2 hPa 79% 0.0mm
24/02:30am ESE 4-6 kts 23.5°c 1013.5 hPa 76% 0.0mm
24/02:00am NE 3-6 kts 23.2°c 1013.7 hPa 76% 0.0mm
24/01:30am E 5-7 kts 23.9°c 1014.0 hPa 71% 0.0mm
24/01:00am E 5-7 kts 24.0°c 1014.3 hPa 71% 0.0mm
24/12:30am E 5-7 kts 24.1°c 1014.5 hPa 66% 0.0mm
24/12:00am E 3-8 kts 24.1°c 1014.9 hPa 70% 0.0mm
Time Wind Speed Temp Pressure Rel. Hum Rain
23/11:30pm SE 4-8 kts 23.9°c 1015.1 hPa 66% 0.0mm
23/11:00pm ESE 6-10 kts 24.1°c 1015.3 hPa 66% 0.0mm
23/10:30pm E 6-9 kts 24.2°c 1015.6 hPa 68% 0.0mm
23/10:00pm ESE 6-9 kts 24.3°c 1015.6 hPa 67% 0.0mm
23/09:30pm E 7-10 kts 24.4°c 1015.5 hPa 67% 0.0mm
23/09:00pm E 6-10 kts 24.2°c 1015.5 hPa 67% 0.0mm
23/08:30pm E 6-10 kts 24.2°c 1015.4 hPa 64% 0.0mm
23/08:00pm E 6-11 kts 24.3°c 1015.2 hPa 65% 0.0mm
23/07:30pm E 6-9 kts 24.3°c 1015.0 hPa 66% 0.0mm
23/07:00pm E 5-7 kts 24.2°c 1014.9 hPa 65% 0.0mm
23/06:30pm E 7-10 kts 24.6°c 1014.8 hPa 63% 0.0mm
23/06:00pm E 6-9 kts 24.9°c 1014.4 hPa 65% 0.0mm
23/05:30pm E 5-8 kts 25.2°c 1014.1 hPa 63% 0.0mm
23/05:00pm E 7-10 kts 25.3°c 1013.8 hPa 61% 0.0mm
23/04:30pm ESE 8-11 kts 25.4°c 1013.6 hPa 60% 0.0mm
23/04:00pm E 9-15 kts 25.8°c 1013.5 hPa 62% 0.0mm
23/03:30pm ESE 8-13 kts 26.4°c 1013.4 hPa 58% 0.0mm
23/03:00pm ESE 8-12 kts 26.4°c 1013.5 hPa 58% 0.0mm
23/02:30pm E 9-14 kts 26.4°c 1013.5 hPa 56% 0.0mm
23/02:00pm E 8-15 kts 26.4°c 1013.7 hPa 56% 0.0mm
23/01:30pm ESE 7-13 kts 26.2°c 1013.9 hPa 57% 0.0mm
23/01:00pm E 8-13 kts 27.0°c 1014.1 hPa 58% 0.0mm
23/12:30pm ESE 7-13 kts 26.6°c 1014.2 hPa 57% 0.0mm
23/12:00pm ESE 7-11 kts 26.7°c 1014.3 hPa 55% 0.0mm
23/11:30am E 7-11 kts 26.7°c 1014.5 hPa 48% 0.0mm
23/11:00am ESE 7-11 kts 26.6°c 1014.7 hPa 49% 0.0mm
23/10:30am E 7-10 kts 27.2°c 1014.8 hPa 51% 0.0mm
23/10:00am E 6-11 kts 26.4°c 1014.9 hPa 58% 0.0mm
23/09:30am ESE 2-6 kts 25.9°c 1014.9 hPa 69% 0.0mm
23/09:00am S 4-6 kts 25.1°c 1014.9 hPa 68% 0.0mm
23/08:30am S 5-7 kts 24.6°c 1014.8 hPa 72% 0.0mm
23/08:00am S 6-8 kts 23.2°c 1014.8 hPa 76% 0.0mm
23/07:30am S 4-5 kts 22.4°c 1014.5 hPa 79% 0.0mm
23/07:00am SSW 3-5 kts 21.9°c 1014.4 hPa 82% 0.0mm
23/06:30am SSW 2-4 kts 20.4°c 1014.0 hPa 88% 0.0mm
23/06:00am SW 2-5 kts 19.8°c 1013.7 hPa 88% 0.0mm
23/05:30am SSE 1-5 kts 19.2°c 1013.6 hPa 90% 0.0mm
23/05:00am CALM 0 kts 19.3°c 1013.2 hPa 89% 0.0mm
23/04:30am CALM 0 kts 19.4°c 1012.9 hPa 88% 0.0mm
23/04:00am CALM 0-3 kts 19.6°c 1012.7 hPa 87% 0.0mm
23/03:30am SW 2-4 kts 19.6°c 1012.5 hPa 88% 0.0mm
23/03:00am CALM 0 kts 20.0°c 1012.5 hPa 88% 0.0mm
23/02:30am CALM 0 kts 20.2°c 1012.4 hPa 85% 0.0mm
23/02:00am SSW 3-5 kts 20.7°c 1012.6 hPa 86% 0.0mm
23/01:30am SW 1-3 kts 20.6°c 1012.8 hPa 84% 0.0mm
23/01:00am SW 4-5 kts 20.7°c 1013.3 hPa 85% 0.0mm
23/12:30am WSW 3-6 kts 20.9°c 1013.6 hPa 83% 0.0mm
23/12:00am SW 3-4 kts 20.9°c 1013.5 hPa 83% 0.0mm